GW0305 Weather Reports


time (UTC)temp
C
wind
direction
speed
KPH
gust
KPH
rain 1hr
cm
rain 24hr
cm
rain mn
cm
humidity
%
barometer
mb
20260508175557 14 225 11.3 27.4 0.00 0.00 0.00 33 1019.2
20260508175048 14 293 6.4 27.4 0.00 0.00 0.00 34 1019.1
20260508174537 14 248 16.1 29.0 0.00 0.00 0.00 33 1019.4
20260508173517 14 225 12.9 29.0 0.00 0.00 0.00 33 1019.1
20260508173007 14 248 12.9 29.0 0.00 0.00 0.00 34 1019.2
20260508172457 14 225 12.9 25.7 0.00 0.00 0.00 34 1019.4
20260508171947 14 225 6.4 32.2 0.00 0.00 0.00 34 1019.2
20260508171437 14 248 11.3 32.2 0.00 0.00 0.00 35 1019.1
20260508170927 14 180 12.9 27.4 0.00 0.00 0.00 34 1019.5
20260508170417 14 135 14.5 27.4 0.00 0.00 0.00 36 1019.1
20260508165906 13 203 11.3 27.4 0.00 0.00 0.00 37 1019.2
20260508164850 13 248 9.7 37.0 0.00 0.00 0.00 37 1019.3
20260508164340 13 270 12.9 37.0 0.00 0.00 0.00 37 1019.4
20260508163830 13 293 8.0 32.2 0.00 0.00 0.00 38 1019.4
20260508163321 13 293 12.9 40.2 0.00 0.00 0.00 38 1019.5
20260508162810 13 180 12.9 40.2 0.00 0.00 0.00 38 1019.6
20260508162300 13 270 9.7 25.7 0.00 0.00 0.00 39 1019.4
20260508161749 13 270 12.9 27.4 0.00 0.00 0.00 38 1019.6
20260508161239 13 45 9.7 27.4 0.00 0.00 0.00 40 1019.7
20260508160730 13 225 6.4 32.2 0.00 0.00 0.00 40 1019.6
20260508160220 12 270 8.0 32.2 0.00 0.00 0.00 41 1019.5
20260508155708 12 248 17.7 32.2 0.00 0.00 0.00 42 1019.8
20260508155158 12 248 12.9 24.1 0.00 0.00 0.00 42 1020.1
20260508154649 12 0 8.0 32.2 0.00 0.00 0.00 43 1020.0
20260508154140 12 180 12.9 32.2 0.00 0.00 0.00 43 1020.0
20260508153628 12 270 8.0 32.2 0.00 0.00 0.00 43 1020.1
20260508153119 12 225 16.1 35.4 0.00 0.00 0.00 43 1020.0
20260508152608 12 203 14.5 35.4 0.00 0.00 0.00 44 1020.0
20260508152058 12 248 12.9 33.8 0.00 0.00 0.00 44 1020.4
20260508150528 12 270 17.7 33.8 0.00 0.00 0.00 44 1020.3
20260508150017 12 225 9.7 27.4 0.00 0.00 0.00 44 1020.4
20260508145510 11 225 14.5 32.2 0.00 0.00 0.00 45 1020.3
20260508144449 11 270 8.0 40.2 0.00 0.00 0.00 46 1020.4
20260508143936 11 248 11.3 35.4 0.00 0.00 0.00 46 1020.5
20260508143427 11 203 14.5 35.4 0.00 0.00 0.00 46 1020.3
20260508142917 11 203 6.4 32.2 0.00 0.00 0.00 46 1020.4
20260508141346 11 225 14.5 32.2 0.00 0.00 0.00 48 1020.3
20260508140836 11 293 6.4 32.2 0.00 0.00 0.00 48 1020.2
20260508140326 11 180 12.9 25.7 0.00 0.00 0.00 48 1020.5
20260508135818 11 248 8.0 25.7 0.00 0.00 0.00 48 1020.2
20260508135306 11 180 6.4 29.0 0.00 0.00 0.00 48 1020.2
20260508134756 10 180 9.7 29.0 0.00 0.00 0.00 48 1020.4
20260508134246 10 315 12.9 25.7 0.00 0.00 0.00 48 1020.1
20260508133736 10 270 12.9 29.0 0.00 0.00 0.00 49 1020.3
20260508133226 10 248 14.5 29.0 0.00 0.00 0.00 49 1020.1
20260508132715 10 270 4.8 33.8 0.00 0.00 0.00 49 1020.0
20260508132205 10 248 9.7 33.8 0.00 0.00 0.00 49 1020.1
20260508131655 10 225 6.4 27.4 0.00 0.00 0.00 49 1020.1
20260508131146 10 203 8.0 29.0 0.00 0.00 0.00 50 1019.9
20260508125615 10 203 6.4 27.4 0.00 0.00 0.00 51 1019.7
20260508124555 10 225 6.4 32.2 0.00 0.00 0.00 53 1019.8
20260508124045 10 203 14.5 32.2 0.00 0.00 0.00 53 1020.2
20260508123535 9 270 8.0 29.0 0.00 0.00 0.00 54 1020.1
20260508123024 9 180 6.4 35.4 0.00 0.00 0.00 55 1020.3
20260508122514 9 135 12.9 35.4 0.00 0.00 0.00 55 1020.2
20260508121455 9 315 8.0 27.4 0.00 0.00 0.00 56 1019.7
20260508120434 8 225 12.9 27.4 0.00 0.00 0.00 57 1019.8
20260508115923 8 45 4.8 27.4 0.00 0.00 0.00 58 1019.7
20260508115414 8 180 12.9 27.4 0.00 0.00 0.00 59 1019.7
20260508114355 8 203 8.0 24.1 0.00 0.00 0.00 60 1019.6
20260508112823 8 203 4.8 25.7 0.00 0.00 0.00 61 1019.4
20260508112314 8 270 9.7 20.9 0.00 0.00 0.00 60 1019.5
20260508111803 8 248 6.4 20.9 0.00 0.00 0.00 60 1019.5
20260508111254 8 270 6.4 25.7 0.00 0.00 0.00 60 1019.3
20260508110743 8 270 9.7 29.0 0.00 0.00 0.00 60 1019.2
20260508110232 8 338 9.7 29.0 0.00 0.00 0.00 59 1019.2
20260508105722 8 248 6.4 25.7 0.00 0.00 0.00 60 1019.2
20260508105212 8 270 14.5 32.2 0.00 0.00 0.00 59 1019.1
20260508104702 8 270 6.4 32.2 0.00 0.00 0.00 59 1019.1
20260508104152 8 225 8.0 27.4 0.00 0.00 0.00 59 1018.9
20260508103643 8 225 6.4 27.4 0.00 0.00 0.00 59 1019.1
20260508103132 8 293 6.4 22.5 0.00 0.00 0.00 59 1019.2
20260508102623 8 225 8.0 32.2 0.00 0.00 0.00 59 1018.9
20260508100541 8 338 9.7 17.7 0.00 0.00 0.00 59 1018.8
20260508100031 8 270 6.4 17.7 0.00 0.00 0.00 60 1018.6
20260508095011 8 90 6.4 17.7 0.00 0.00 0.00 59 1018.5
20260508094458 8 225 8.0 17.7 0.00 0.00 0.00 60 1018.3
20260508093950 7 248 6.4 17.7 0.00 0.00 0.00 61 1018.3
20260508093441 7 293 4.8 17.7 0.00 0.00 0.00 61 1018.2
20260508092420 7 225 6.4 22.5 0.00 0.00 0.00 60 1017.9
20260508091910 7 203 8.0 14.5 0.00 0.00 0.00 60 1018.0
20260508091400 7 225 6.4 17.7 0.00 0.00 0.00 60 1017.9
20260508090850 7 225 3.2 17.7 0.00 0.00 0.00 59 1017.9
20260508090340 7 225 8.0 20.9 0.00 0.00 0.00 59 1017.9
20260508085830 7 248 4.8 20.9 0.00 0.00 0.00 59 1017.9
20260508084809 7 293 4.8 17.7 0.00 0.00 0.00 59 1017.9
20260508084259 7 248 4.8 17.7 0.00 0.00 0.00 59 1017.9
20260508083750 7 225 3.2 14.5 0.00 0.00 0.00 59 1018.0
20260508083241 7 293 6.4 25.7 0.00 0.00 0.00 58 1017.9
20260508082729 7 225 6.4 25.7 0.00 0.00 0.00 58 1017.9
20260508081159 7 203 3.2 17.7 0.00 0.00 0.00 57 1018.0
20260508080138 7 248 3.2 14.5 0.00 0.00 0.00 57 1018.3
20260508075118 7 315 3.2 17.7 0.00 0.00 0.00 55 1018.0
20260508074611 7 248 4.8 14.5 0.00 0.00 0.00 55 1017.8
20260508074058 7 158 8.0 17.7 0.00 0.00 0.00 54 1018.1
20260508073548 7 225 6.4 20.9 0.00 0.00 0.00 54 1017.8
20260508073046 7 293 9.7 20.9 0.00 0.00 0.00 54 1017.8
20260508072528 7 180 6.4 20.9 0.00 0.00 0.00 54 1017.8
20260508071514 7 225 8.0 20.9 0.00 0.00 0.00 53 1017.9
20260508070957 7 248 6.4 20.9 0.00 0.00 0.00 53 1017.9
20260508070447 7 225 6.4 20.9 0.00 0.00 0.00 53 1017.9
20260508065427 7 248 6.4 17.7 0.00 0.00 0.00 54 1018.0
20260508064916 8 225 8.0 17.7 0.00 0.00 0.00 54 1018.1
20260508064407 8 248 9.7 22.5 0.00 0.00 0.00 53 1018.1
20260508063856 8 203 12.9 22.5 0.00 0.00 0.00 53 1018.2
20260508063343 8 135 1.6 0.0 0.00 0.00 0.00 54 1022.6
20260508063149 8 225 8.0 0.0 0.00 0.00 0.00 54 1018.2
20260508062558 8 225 9.7 24.1 0.00 0.03 0.00 55 1018.0
20260508062049 8 270 6.4 24.1 0.00 0.03 0.00 55 1018.1
20260508060519 8 248 6.4 22.5 0.00 0.03 0.00 60 1018.2
20260508060008 8 225 6.4 22.5 0.00 0.03 0.00 61 1018.4
20260508055458 8 225 4.8 20.9 0.00 0.03 0.00 62 1018.3
20260508054948 8 293 11.3 17.7 0.00 0.03 0.00 63 1018.3
20260508053929 8 248 6.4 20.9 0.00 0.03 0.00 65 1018.3
20260508053418 8 225 4.8 14.5 0.00 0.03 0.00 65 1018.3
20260508052908 8 225 6.4 17.7 0.00 0.03 0.00 65 1018.4
20260508052358 8 248 6.4 17.7 0.00 0.03 0.00 66 1018.2
20260508051847 8 225 8.0 22.5 0.00 0.03 0.00 65 1018.3
20260508050827 9 135 4.8 24.1 0.00 0.03 0.00 66 1018.3
20260508050317 9 270 6.4 17.7 0.00 0.03 0.00 68 1018.6
20260508045807 9 248 6.4 17.7 0.00 0.03 0.00 69 1018.6
20260508045257 9 248 4.8 22.5 0.00 0.03 0.00 71 1018.6
20260508044747 9 315 6.4 22.5 0.00 0.03 0.00 71 1018.6
20260508044237 9 270 8.0 20.9 0.00 0.03 0.00 72 1018.7
20260508043727 9 293 8.0 14.5 0.00 0.03 0.00 73 1018.4
20260508043216 8 248 4.8 12.9 0.00 0.03 0.00 77 1018.3
20260508042707 8 225 4.8 9.7 0.00 0.03 0.00 78 1018.4
20260508041646 9 248 3.2 11.3 0.00 0.03 0.00 79 1018.4
20260508041136 9 248 3.2 11.3 0.00 0.03 0.00 78 1018.3
20260508040626 9 315 4.8 11.3 0.00 0.03 0.00 78 1018.4
20260508035605 10 248 3.2 11.3 0.00 0.03 0.00 77 1018.1
20260508035055 10 225 3.2 17.7 0.00 0.03 0.00 76 1017.9
20260508034546 10 225 4.8 17.7 0.00 0.03 0.00 75 1017.9
20260508034035 10 203 3.2 12.9 0.00 0.03 0.00 76 1017.8
20260508033526 10 315 4.8 12.9 0.00 0.03 0.00 75 1017.9
20260508033015 10 225 4.8 14.5 0.00 0.03 0.00 75 1017.7
20260508032505 10 203 6.4 14.5 0.00 0.03 0.00 75 1017.6
20260508031955 10 180 4.8 11.3 0.00 0.03 0.00 75 1017.7
20260508030934 11 225 4.8 17.7 0.00 0.03 0.00 73 1017.8
20260508030425 11 270 6.4 14.5 0.00 0.03 0.00 72 1017.7
20260508025914 11 248 6.4 20.9 0.00 0.03 2.34 71 1017.7
20260508025405 11 315 9.7 20.9 0.00 0.03 2.34 70 1017.6
20260508024854 11 203 8.0 17.7 0.00 0.03 2.34 70 1017.4
20260508024344 11 293 8.0 17.7 0.00 0.03 2.34 70 1017.4
20260508023835 11 315 11.3 22.5 0.00 0.03 2.34 69 1017.4
20260508022815 11 225 6.4 17.7 0.00 0.03 2.34 71 1017.5
20260508021753 11 158 12.9 25.7 0.00 0.03 2.34 71 1017.3
20260508021244 11 248 6.4 25.7 0.00 0.03 2.34 71 1017.6
20260508020734 11 225 12.9 29.0 0.00 0.03 2.34 71 1017.7
20260508020224 11 248 9.7 29.0 0.00 0.03 2.34 70 1017.8
20260508015713 12 203 8.0 22.5 0.00 0.03 2.34 70 1017.8
20260508015204 12 180 6.4 22.5 0.00 0.03 2.34 70 1017.7
20260508013632 12 180 12.9 24.1 0.00 0.03 2.34 69 1017.7
20260508013124 12 248 9.7 22.5 0.00 0.03 2.34 69 1017.8
20260508012612 12 225 8.0 17.7 0.00 0.03 2.34 69 1017.8
20260508012102 12 203 4.8 17.7 0.00 0.03 2.34 69 1017.9
20260508011552 12 248 11.3 20.9 0.00 0.03 2.34 69 1017.8
20260508011043 12 225 11.3 20.9 0.00 0.03 2.34 69 1018.0
20260508010534 12 225 6.4 20.9 0.00 0.03 2.34 69 1017.9
20260508010022 12 180 6.4 17.7 0.00 0.03 2.34 70 1017.9
20260508005512 12 248 6.4 17.7 0.00 0.03 2.34 70 1018.1
20260508005006 12 203 6.4 24.1 0.00 0.03 2.34 71 1018.2
20260508003944 12 225 6.4 14.5 0.00 0.03 2.34 68 1018.2
20260508003431 12 225 3.2 17.7 0.00 0.03 2.34 69 1018.1
20260508002922 12 270 3.2 17.7 0.00 0.03 2.34 68 1018.2
20260508001902 12 248 9.7 20.9 0.00 0.03 2.34 68 1018.3
20260508001351 12 225 6.4 24.1 0.00 0.03 2.34 67 1018.3
20260508000334 12 293 11.3 32.2 0.00 0.03 2.34 67 1018.6
20260507235310 12 270 3.2 20.9 0.00 0.03 2.34 69 1018.7
20260507233725 13 203 4.8 24.1 0.00 0.03 2.34 68 1018.5
20260507233215 13 270 3.2 22.5 0.00 0.03 2.34 67 1018.6
20260507232706 13 225 6.4 22.5 0.00 0.03 2.34 67 1018.6
20260507232155 13 293 11.3 20.9 0.00 0.03 2.34 66 1018.5
20260507231646 13 225 6.4 17.7 0.00 0.03 2.34 66 1018.5
20260507231135 13 270 4.8 17.7 0.00 0.03 2.34 65 1018.2
20260507230115 13 293 4.8 24.1 0.00 0.03 2.34 66 1018.2
20260507225605 13 248 4.8 25.7 0.00 0.03 2.34 65 1018.1
20260507225055 13 203 3.2 25.7 0.00 0.03 2.34 65 1018.1
20260507224036 13 293 9.7 25.7 0.00 0.03 2.34 65 1017.9
20260507223524 13 225 6.4 17.7 0.00 0.03 2.34 66 1017.9
20260507223015 13 248 6.4 17.7 0.00 0.03 2.34 67 1017.6
20260507222505 13 0 3.2 11.3 0.00 0.03 2.34 68 1017.3
20260507221956 13 225 3.2 17.7 0.00 0.03 2.34 69 1016.9
20260507221444 13 203 6.4 17.7 0.00 0.03 2.34 69 1016.6
20260507220934 13 293 3.2 17.7 0.00 0.03 2.34 68 1016.5
20260507220425 13 225 6.4 12.9 0.00 0.03 2.34 69 1016.4
20260507215914 13 248 3.2 12.9 0.00 0.03 2.34 69 1016.5
20260507214854 13 248 3.2 12.9 0.00 0.03 2.34 68 1016.3
20260507214344 13 225 3.2 12.9 0.00 0.03 2.34 68 1016.1
20260507213834 13 180 3.2 11.3 0.00 0.03 2.34 68 1015.8
20260507213324 13 270 4.8 11.3 0.00 0.03 2.34 67 1016.0
20260507212814 13 0 4.8 14.5 0.00 0.03 2.34 67 1016.3
20260507212306 13 225 3.2 17.7 0.00 0.03 2.34 67 1016.3
20260507211752 13 203 1.6 17.7 0.00 0.03 2.34 67 1016.5
20260507210733 13 225 3.2 9.7 0.00 0.03 2.34 67 1016.4
20260507210222 13 270 4.8 14.5 0.00 0.03 2.34 67 1016.5
20260507205659 13 158 4.8 17.7 0.00 0.03 2.34 67 1016.1
20260507205202 13 113 6.4 17.7 0.00 0.03 2.34 67 1016.3
20260507204640 14 225 6.4 20.9 0.00 0.03 2.34 67 1016.4
20260507204128 14 225 9.7 20.9 0.00 0.03 2.34 66 1016.4
20260507202558 14 270 9.7 29.0 0.00 0.03 2.34 66 1016.7
20260507202047 14 225 6.4 29.0 0.00 0.03 2.34 67 1016.9
20260507201538 14 225 12.9 27.4 0.00 0.03 2.34 66 1016.7
20260507200008 14 225 9.7 24.1 0.00 0.03 2.34 66 1016.4
20260507195458 14 225 6.4 24.1 0.00 0.03 2.34 66 1016.0
20260507194438 14 180 6.4 22.5 0.00 0.03 2.34 66 1015.8
20260507193927 15 225 9.7 22.5 0.00 0.03 2.34 66 1015.6
20260507193417 15 270 9.7 22.5 0.00 0.03 2.34 65 1015.4
20260507192906 15 158 4.8 17.7 0.00 0.03 2.34 64 1015.4
20260507191847 15 113 6.4 17.7 0.00 0.03 2.34 65 1015.4
20260507191336 15 225 8.0 17.7 0.00 0.03 2.34 65 1014.8
20260507190828 15 270 6.4 17.7 0.00 0.03 2.34 64 1014.8
20260507190316 15 180 3.2 12.9 0.00 0.03 2.34 64 1014.5
20260507185807 15 248 3.2 27.4 0.00 0.03 2.34 63 1015.1
20260507185255 15 225 1.6 27.4 0.00 0.03 2.34 62 1015.3
20260507184746 15 225 4.8 25.7 0.00 0.03 2.34 61 1015.0
20260507184236 15 225 8.0 20.9 0.00 0.03 2.34 61 1015.2
20260507183727 15 248 3.2 27.4 0.00 0.03 2.34 60 1015.9
20260507183216 15 158 6.4 27.4 0.00 0.03 2.34 60 1015.6
20260507182713 15 225 3.2 17.7 0.00 0.03 2.34 61 1016.1
20260507182152 15 248 8.0 24.1 0.00 0.03 2.34 61 1016.2
20260507181642 15 203 3.2 24.1 0.00 0.03 2.34 61 1016.7
20260507181131 15 248 11.3 24.1 0.00 0.03 2.34 60 1016.7
20260507180625 15 248 8.0 25.7 0.00 0.03 2.34 61 1016.7